Location: Downe
(51.3167°N, 0.0500°E)
Time: 20:48:35
(UTC+00:00)

STARLINK-48 - Pass Details

Date: 17 November 2019
Orbit: 506 x 509 km, 53.0° (Epoch: 14 December)

Event Time Altitude Azimuth Distance (km) Brightness Sun altitude
Exits shadow 05:55:04 14° 243° (WSW) 1,487 5.4 -13.1°
Maximum altitude 05:58:22 76° 160° (SSE) 529 3.6 -12.6°
Drops below altitude 10° 06:02:17 10° 74° (ENE) 1,731 7.1 -12.0°
Sets 06:04:29 0° 72° (ENE) 2,619 8.1 -11.7°
